Total_Precipitation_Accumulation
2.99 3.27 3.13 2.96 2.97 2.95 3.23 3.55 3.56 3.15 2.81 2.60 2.40 2.30 2.28 2.23 2.34 2.17 2.14 2.17 1.95 1.79 1.65 1.54 1.48 1.46 1.54 1.69 1.93 2.18 2.38 2.53 2.66 2.78 2.97 3.21 3.48 3.77
2.90 3.04 3.01 2.93 3.14 3.12 3.22 3.48 3.70 3.63 3.03 2.77 2.64 2.31 2.36 1.98 2.15 2.03 2.00 1.99 1.77 1.65 1.56 1.52 1.49 1.46 1.45 1.48 1.57 1.71 1.89 2.04 2.17 2.26 2.30 2.35 2.43 2.61
2.49 2.58 2.58 2.83 3.01 2.97 3.13 3.30 3.54 3.78 3.35 3.07 3.09 2.80 2.74 2.47 2.23 2.02 1.78 1.73 1.61 1.58 1.45 1.39 1.37 1.37 1.39 1.37 1.36 1.41 1.53 1.65 1.77 1.91 2.08 2.18 2.20 2.25
2.38 2.48 2.35 2.56 2.69 2.74 2.94 3.09 3.35 3.76 3.58 3.30 3.22 3.08 2.94 2.70 2.48 2.22 1.78 1.54 1.56 1.67 1.50 1.36 1.31 1.28 1.30 1.29 1.22 1.19 1.22 1.28 1.34 1.47 1.65 1.82 1.94 2.08
2.20 2.13 2.07 2.26 2.32 2.51 2.68 2.69 2.89 3.30 3.38 3.06 2.94 3.16 3.02 2.80 2.80 2.45 2.14 2.03 1.58 1.58 1.50 1.33 1.26 1.20 1.20 1.25 1.23 1.15 1.12 1.12 1.16 1.27 1.46 1.63 1.75 1.82
1.92 1.81 1.84 2.02 2.02 2.18 2.25 2.45 2.66 2.79 3.00 2.94 2.82 2.94 2.96 2.87 3.02 2.78 2.58 2.41 2.03 1.66 1.65 1.41 1.27 1.21 1.17 1.16 1.18 1.20 1.22 1.20 1.19 1.25 1.32 1.42 1.58 1.69
1.69 1.56 1.50 1.52 1.59 1.76 1.72 2.00 2.30 2.42 2.51 2.64 2.65 2.74 2.95 3.08 2.94 2.92 2.76 2.59 2.38 2.14 2.09 1.67 1.36 1.19 1.16 1.17 1.19 1.25 1.29 1.30 1.31 1.37 1.47 1.52 1.58 1.65
1.66 1.64 1.47 1.36 1.35 1.41 1.43 1.52 1.74 1.88 2.09 2.37 2.44 2.52 2.75 3.03 3.11 3.10 2.99 2.77 2.55 2.35 2.45 2.39 2.00 1.71 1.48 1.23 1.24 1.26 1.35 1.44 1.48 1.55 1.64 1.75 1.86 1.86
1.65 1.62 1.36 1.24 1.31 1.26 1.35 1.36 1.42 1.50 1.62 1.88 2.02 2.07 2.34 2.67 3.02 3.06 3.13 2.94 2.69 2.64 2.71 2.73 2.78 2.51 1.91 1.55 1.49 1.31 1.36 1.47 1.53 1.58 1.64 1.67 1.82 1.99
1.55 1.59 1.57 1.52 1.43 1.46 1.48 1.40 1.28 1.31 1.34 1.30 1.39 1.65 1.87 2.16 2.57 2.73 3.00 3.16 2.99 2.87 2.89 2.94 2.97 3.18 2.65 2.10 1.94 1.67 1.59 1.60 1.64 1.65 1.67 1.73 1.79 1.89
1.56 1.59 1.58 1.51 1.52 1.50 1.48 1.46 1.33 1.27 1.26 1.27 1.26 1.40 1.64 1.79 2.09 2.42 2.71 2.92 2.99 3.05 3.11 3.16 3.06 3.20 3.46 2.98 2.28 1.95 1.69 1.60 1.62 1.66 1.71 1.82 1.90 1.90
1.64 1.64 1.56 1.48 1.58 1.48 1.34 1.39 1.38 1.41 1.47 1.42 1.41 1.44 1.47 1.63 1.93 2.18 2.46 2.76 2.79 2.87 2.72 2.72 2.73 2.87 3.29 3.44 3.02 2.38 1.93 1.76 1.65 1.60 1.63 1.75 1.91 1.76
1.71 1.74 1.72 1.63 1.37 1.29 1.27 1.28 1.37 1.45 1.53 1.55 1.55 1.59 1.66 1.71 1.78 1.96 2.24 2.50 2.59 2.40 2.18 2.35 2.54 2.65 2.71 2.83 2.95 2.85 2.46 2.14 1.93 1.77 1.72 1.71 1.75 1.70
1.98 1.97 1.93 1.75 1.46 1.33 1.24 1.30 1.40 1.34 1.35 1.47 1.46 1.44 1.52 1.60 1.71 1.90 2.11 2.23 2.30 2.29 2.27 2.38 2.52 2.54 2.63 2.65 2.67 2.70 2.69 2.54 2.36 2.24 2.17 2.15 1.94 1.85
2.19 2.21 2.10 1.86 1.60 1.38 1.32 1.31 1.28 1.21 1.23 1.31 1.28 1.24 1.32 1.42 1.52 1.71 1.94 2.13 2.17 2.10 2.12 2.23 2.34 2.37 2.50 2.56 2.47 2.37 2.45 2.54 2.54 2.52 2.55 2.51 2.34 2.16
2.30 2.25 2.14 1.94 1.66 1.50 1.42 1.33 1.21 1.25 1.28 1.25 1.27 1.28 1.37 1.48 1.60 1.69 1.87 2.03 2.18 2.12 2.07 2.10 2.18 2.32 2.31 2.16 2.09 1.95 1.95 2.08 2.24 2.39 2.59 2.78 2.79 2.67
2.42 2.27 2.16 1.94 1.75 1.66 1.57 1.49 1.41 1.39 1.33 1.29 1.32 1.32 1.34 1.41 1.51 1.57 1.69 1.76 1.82 1.84 1.90 1.99 2.15 2.29 2.29 2.20 2.06 1.84 1.80 1.77 1.83 2.12 2.43 2.67 2.66 2.50
1.89 1.83 1.87 1.82 1.73 1.66 1.61 1.53 1.46 1.39 1.37 1.36 1.36 1.33 1.28 1.30 1.40 1.52 1.63 1.65 1.63 1.63 1.72 1.82 2.07 2.29 2.33 2.15 1.80 1.67 1.67 1.65 1.69 1.92 2.09 2.17 2.12 1.97
1.57 1.60 1.56 1.55 1.53 1.52 1.51 1.46 1.38 1.36 1.41 1.43 1.38 1.37 1.36 1.37 1.39 1.52 1.64 1.69 1.63 1.62 1.74 1.89 2.05 2.19 2.17 1.94 1.70 1.46 1.48 1.54 1.69 1.87 1.94 1.90 1.77 1.61
1.45 1.51 1.51 1.49 1.48 1.51 1.54 1.49 1.46 1.47 1.50 1.52 1.50 1.52 1.55 1.55 1.56 1.57 1.64 1.70 1.67 1.67 1.75 1.87 1.92 1.96 1.97 1.86 1.73 1.56 1.33 1.40 1.50 1.62 1.70 1.72 1.62 1.45
1.54 1.58 1.59 1.59 1.61 1.65 1.64 1.60 1.59 1.55 1.52 1.56 1.57 1.58 1.57 1.58 1.64 1.66 1.73 1.80 1.75 1.68 1.65 1.65 1.75 1.88 2.01 2.20 2.05 1.74 1.55 1.46 1.50 1.54 1.63 1.73 1.72 1.65
1.50 1.56 1.60 1.64 1.68 1.68 1.62 1.59 1.60 1.58 1.55 1.55 1.53 1.53 1.54 1.52 1.54 1.63 1.67 1.70 1.69 1.63 1.57 1.62 1.84 2.05 2.12 2.18 2.05 1.87 1.79 1.72 1.67 1.63 1.55 1.47 1.49 1.50
1.50 1.56 1.57 1.55 1.54 1.50 1.43 1.41 1.48 1.53 1.55 1.55 1.52 1.50 1.50 1.48 1.47 1.57 1.63 1.65 1.66 1.69 1.71 1.77 1.86 1.98 2.03 2.06 2.10 2.04 1.89 1.82 1.81 1.78 1.68 1.47 1.17 1.03